����������;��������(kVARh)
2017-09-04 00:00;9,1
2017-09-04 00:15;13,85
2017-09-04 00:30;14,1
2017-09-04 00:45;20
2017-09-04 01:00;22,95
2017-09-04 01:15;22,05
2017-09-04 01:30;11,05
2017-09-04 01:45;8,1
2017-09-04 02:00;9,75
2017-09-04 02:15;7,9
2017-09-04 02:30;9,65
2017-09-04 02:45;9,95
2017-09-04 03:00;9,55
2017-09-04 03:15;10,3
2017-09-04 03:30;8,65
2017-09-04 03:45;10,4
2017-09-04 04:00;10,15
2017-09-04 04:15;9,9
2017-09-04 04:30;10,05
2017-09-04 04:45;7,95
2017-09-04 05:00;10,8
2017-09-04 05:15;8,8
2017-09-04 05:30;10,5
2017-09-04 05:45;16,45
2017-09-04 06:00;16,35
2017-09-04 06:15;18,5
2017-09-04 06:30;15,25
2017-09-04 06:45;16,75
2017-09-04 07:00;16,3
2017-09-04 07:15;19,3
2017-09-04 07:30;40,9
2017-09-04 07:45;47,75
2017-09-04 08:00;53,65
2017-09-04 08:15;35,15
2017-09-04 08:30;48,15
2017-09-04 08:45;46,35
2017-09-04 09:00;47,3
2017-09-04 09:15;57,8
2017-09-04 09:30;62,45
2017-09-04 09:45;74,6
2017-09-04 10:00;75,95
2017-09-04 10:15;79,8
2017-09-04 10:30;83,95
2017-09-04 10:45;87
2017-09-04 11:00;72,4
2017-09-04 11:15;73,05
2017-09-04 11:30;73,35
2017-09-04 11:45;75,85
2017-09-04 12:00;75,35
2017-09-04 12:15;79,4
2017-09-04 12:30;91,9
2017-09-04 12:45;115,3
2017-09-04 13:00;110,55
2017-09-04 13:15;83,1
2017-09-04 13:30;92,5
2017-09-04 13:45;80,65
2017-09-04 14:00;86,4
2017-09-04 14:15;86,2
2017-09-04 14:30;94,7
2017-09-04 14:45;96,45
2017-09-04 15:00;94
2017-09-04 15:15;88,55
2017-09-04 15:30;87,5
2017-09-04 15:45;83,9
2017-09-04 16:00;83,9
2017-09-04 16:15;68,2
2017-09-04 16:30;62,8
2017-09-04 16:45;64,5
2017-09-04 17:00;62,7
2017-09-04 17:15;60,7
2017-09-04 17:30;57,1
2017-09-04 17:45;57
2017-09-04 18:00;54,15
2017-09-04 18:15;53
2017-09-04 18:30;50,35
2017-09-04 18:45;50,65
2017-09-04 19:00;49,4
2017-09-04 19:15;50,95
2017-09-04 19:30;49,6
2017-09-04 19:45;45,05
2017-09-04 20:00;48,3
2017-09-04 20:15;42,9
2017-09-04 20:30;42,1
2017-09-04 20:45;40,8
2017-09-04 21:00;35,6
2017-09-04 21:15;39,3
2017-09-04 21:30;38,15
2017-09-04 21:45;34,8
2017-09-04 22:00;29,6
2017-09-04 22:15;32,6
2017-09-04 22:30;33,2
2017-09-04 22:45;30,8
2017-09-04 23:00;29,8
2017-09-04 23:15;25,1
2017-09-04 23:30;26,2
2017-09-04 23:45;26,3
2017-09-05 00:00;25
2017-09-05 00:15;24,05
2017-09-05 00:30;21,85
2017-09-05 00:45;19,55
2017-09-05 01:00;19,4
2017-09-05 01:15;16,8
2017-09-05 01:30;9,7
2017-09-05 01:45;3,3
2017-09-05 02:00;4,8
2017-09-05 02:15;4,4
2017-09-05 02:30;5,15
2017-09-05 02:45;4,8
2017-09-05 03:00;3,9
2017-09-05 03:15;5,25
2017-09-05 03:30;4,65
2017-09-05 03:45;4,9
2017-09-05 04:00;5
2017-09-05 04:15;3,2
2017-09-05 04:30;4,6
2017-09-05 04:45;3,7
2017-09-05 05:00;3,65
2017-09-05 05:15;4,05
2017-09-05 05:30;4,9
2017-09-05 05:45;4,9
2017-09-05 06:00;4,65
2017-09-05 06:15;5,25
2017-09-05 06:30;6,8
2017-09-05 06:45;13,2
2017-09-05 07:00;8,4
2017-09-05 07:15;15,3
2017-09-05 07:30;36,5
2017-09-05 07:45;45,05
2017-09-05 08:00;44,55
2017-09-05 08:15;26,6
2017-09-05 08:30;35,5
2017-09-05 08:45;44,05
2017-09-05 09:00;48
2017-09-05 09:15;51,95
2017-09-05 09:30;53,95
2017-09-05 09:45;57,25
2017-09-05 10:00;53,7
2017-09-05 10:15;58,1
2017-09-05 10:30;68,6
2017-09-05 10:45;61,7
2017-09-05 11:00;65,1
2017-09-05 11:15;68,75
2017-09-05 11:30;70,15
2017-09-05 11:45;69,55
2017-09-05 12:00;79,1
2017-09-05 12:15;81,45
2017-09-05 12:30;89,55
2017-09-05 12:45;86,05
2017-09-05 13:00;79,7
2017-09-05 13:15;69,9
2017-09-05 13:30;66,55
2017-09-05 13:45;80,1
2017-09-05 14:00;84,05
2017-09-05 14:15;83,3
2017-09-05 14:30;79,9
2017-09-05 14:45;81,6
2017-09-05 15:00;82,5
2017-09-05 15:15;79,6
2017-09-05 15:30;79,35
2017-09-05 15:45;80,75
2017-09-05 16:00;79,9
2017-09-05 16:15;81,5
2017-09-05 16:30;80
2017-09-05 16:45;81,7
2017-09-05 17:00;78,15
2017-09-05 17:15;74,15
2017-09-05 17:30;64,3
2017-09-05 17:45;61,35
2017-09-05 18:00;58,65
2017-09-05 18:15;52,55
2017-09-05 18:30;51,65
2017-09-05 18:45;45,6
2017-09-05 19:00;44,6
2017-09-05 19:15;39,5
2017-09-05 19:30;39,4
2017-09-05 19:45;39
2017-09-05 20:00;36,05
2017-09-05 20:15;30,55
2017-09-05 20:30;29,2
2017-09-05 20:45;30,35
2017-09-05 21:00;30,15
2017-09-05 21:15;31,8
2017-09-05 21:30;32,9
2017-09-05 21:45;29,1
2017-09-05 22:00;30,8
2017-09-05 22:15;36,8
2017-09-05 22:30;37,4
2017-09-05 22:45;21,4
2017-09-05 23:00;19,9
2017-09-05 23:15;12,35
2017-09-05 23:30;11,7
2017-09-05 23:45;13,55
2017-09-06 00:00;9,3
2017-09-06 00:15;4,3
2017-09-06 00:30;4,1
2017-09-06 00:45;3,95
2017-09-06 01:00;4,25
2017-09-06 01:15;1,25
2017-09-06 01:30;1,45
2017-09-06 01:45;1,8
2017-09-06 02:00;2,1
2017-09-06 02:15;2,4
2017-09-06 02:30;2
2017-09-06 02:45;2
2017-09-06 03:00;0,25
2017-09-06 03:15;1,15
2017-09-06 03:30;0,9
2017-09-06 03:45;1
2017-09-06 04:00;0,75
2017-09-06 04:15;0,7
2017-09-06 04:30;1,05
2017-09-06 04:45;0,7
2017-09-06 05:00;0,7
2017-09-06 05:15;0,5
2017-09-06 05:30;1,65
2017-09-06 05:45;0,35
2017-09-06 06:00;0,75
2017-09-06 06:15;1,15
2017-09-06 06:30;13,4
2017-09-06 06:45;18,6
2017-09-06 07:00;15,7
2017-09-06 07:15;16,5
2017-09-06 07:30;39,8
2017-09-06 07:45;50,5
2017-09-06 08:00;52,25
2017-09-06 08:15;45,65
2017-09-06 08:30;50,05
2017-09-06 08:45;52,45
2017-09-06 09:00;58,85
2017-09-06 09:15;60,9
2017-09-06 09:30;60,8
2017-09-06 09:45;59
2017-09-06 10:00;64
2017-09-06 10:15;64,05
2017-09-06 10:30;61,2
2017-09-06 10:45;64,55
2017-09-06 11:00;67,95
2017-09-06 11:15;66,85
2017-09-06 11:30;74,6
2017-09-06 11:45;83,5
2017-09-06 12:00;83,9
2017-09-06 12:15;89
2017-09-06 12:30;84,4
2017-09-06 12:45;86,35
2017-09-06 13:00;87,1
2017-09-06 13:15;77,8
2017-09-06 13:30;76
2017-09-06 13:45;79,85
2017-09-06 14:00;81,2
2017-09-06 14:15;79,3
2017-09-06 14:30;78,95
2017-09-06 14:45;76,4
2017-09-06 15:00;78,5
2017-09-06 15:15;84,15
2017-09-06 15:30;83,5
2017-09-06 15:45;91,1
2017-09-06 16:00;89,4
2017-09-06 16:15;89,05
2017-09-06 16:30;74,9
2017-09-06 16:45;76,15
2017-09-06 17:00;71,1
2017-09-06 17:15;68,1
2017-09-06 17:30;58,35
2017-09-06 17:45;60,4
2017-09-06 18:00;57,5
2017-09-06 18:15;47,7
2017-09-06 18:30;51,7
2017-09-06 18:45;46,9
2017-09-06 19:00;45,8
2017-09-06 19:15;37,7
2017-09-06 19:30;36,9
2017-09-06 19:45;38,3
2017-09-06 20:00;29,8
2017-09-06 20:15;21,1
2017-09-06 20:30;21,3
2017-09-06 20:45;21,3
2017-09-06 21:00;20,7
2017-09-06 21:15;22,55
2017-09-06 21:30;25,05
2017-09-06 21:45;20,1
2017-09-06 22:00;15,8
2017-09-06 22:15;16,9
2017-09-06 22:30;13,35
2017-09-06 22:45;12,2
2017-09-06 23:00;15,25
2017-09-06 23:15;10,55
2017-09-06 23:30;11,55
2017-09-06 23:45;9,8
2017-09-07 00:00;6,85
2017-09-07 00:15;8,9
2017-09-07 00:30;7,95
2017-09-07 00:45;5,25
2017-09-07 01:00;3,55
2017-09-07 01:15;2,45
2017-09-07 01:30;3,45
2017-09-07 01:45;3,75
2017-09-07 02:00;4,75
2017-09-07 02:15;3
2017-09-07 02:30;3,9
2017-09-07 02:45;5,45
2017-09-07 03:00;3,85
2017-09-07 03:15;5,9
2017-09-07 03:30;4,55
2017-09-07 03:45;7,3
2017-09-07 04:00;8,05
2017-09-07 04:15;7,4
2017-09-07 04:30;7,05
2017-09-07 04:45;7,5
2017-09-07 05:00;6,3
2017-09-07 05:15;7,55
2017-09-07 05:30;6,8
2017-09-07 05:45;6,75
2017-09-07 06:00;7,3
2017-09-07 06:15;7
2017-09-07 06:30;13,9
2017-09-07 06:45;21,35
2017-09-07 07:00;27,5
2017-09-07 07:15;32,4
2017-09-07 07:30;42,55
2017-09-07 07:45;52,65
2017-09-07 08:00;46,2
2017-09-07 08:15;32,6
2017-09-07 08:30;32,85
2017-09-07 08:45;43,55
2017-09-07 09:00;59,5
2017-09-07 09:15;66,1
2017-09-07 09:30;72,7
2017-09-07 09:45;72,5
2017-09-07 10:00;70,25
2017-09-07 10:15;71,05
2017-09-07 10:30;69,55
2017-09-07 10:45;72,05
2017-09-07 11:00;74,25
2017-09-07 11:15;71,85
2017-09-07 11:30;83,55
2017-09-07 11:45;84,75
2017-09-07 12:00;86,9
2017-09-07 12:15;91,9
2017-09-07 12:30;90,55
2017-09-07 12:45;91,95
2017-09-07 13:00;89,85
2017-09-07 13:15;82,1
2017-09-07 13:30;84,55
2017-09-07 13:45;83,7
2017-09-07 14:00;83,3
2017-09-07 14:15;83,4
2017-09-07 14:30;73,55
2017-09-07 14:45;74
2017-09-07 15:00;73,15
2017-09-07 15:15;70,15
2017-09-07 15:30;66,8
2017-09-07 15:45;56,85
2017-09-07 16:00;49
2017-09-07 16:15;49,8
2017-09-07 16:30;47,15
2017-09-07 16:45;49,65
2017-09-07 17:00;48,55
2017-09-07 17:15;44,7
2017-09-07 17:30;40,95
2017-09-07 17:45;40,1
2017-09-07 18:00;38,9
2017-09-07 18:15;33,75
2017-09-07 18:30;37,85
2017-09-07 18:45;39,6
2017-09-07 19:00;41,1
2017-09-07 19:15;37,5
2017-09-07 19:30;40,85
2017-09-07 19:45;35,6
2017-09-07 20:00;34,55
2017-09-07 20:15;24,95
2017-09-07 20:30;23,35
2017-09-07 20:45;23,45
2017-09-07 21:00;23,05
2017-09-07 21:15;22,2
2017-09-07 21:30;23,7
2017-09-07 21:45;23,9
2017-09-07 22:00;22
2017-09-07 22:15;25
2017-09-07 22:30;22,4
2017-09-07 22:45;20,9
2017-09-07 23:00;21,6
2017-09-07 23:15;15,2
2017-09-07 23:30;11,65
2017-09-07 23:45;9,35
2017-09-08 00:00;7,15
2017-09-08 00:15;4,1
2017-09-08 00:30;2,85
2017-09-08 00:45;4
2017-09-08 01:00;3,2
2017-09-08 01:15;1,35
2017-09-08 01:30;2
2017-09-08 01:45;1,2
2017-09-08 02:00;1,25
2017-09-08 02:15;0,9
2017-09-08 02:30;0,8
2017-09-08 02:45;0,95
2017-09-08 03:00;1,45
2017-09-08 03:15;4,1
2017-09-08 03:30;1,8
2017-09-08 03:45;1,7
2017-09-08 04:00;1,8
2017-09-08 04:15;1,4
2017-09-08 04:30;1,05
2017-09-08 04:45;1,9
2017-09-08 05:00;1,4
2017-09-08 05:15;1,2
2017-09-08 05:30;2,05
2017-09-08 05:45;1,15
2017-09-08 06:00;1,35
2017-09-08 06:15;1,7
2017-09-08 06:30;1,7
2017-09-08 06:45;9,8
2017-09-08 07:00;15,65
2017-09-08 07:15;18,15
2017-09-08 07:30;38,95
2017-09-08 07:45;50,35
2017-09-08 08:00;42,65
2017-09-08 08:15;23,3
2017-09-08 08:30;32,45
2017-09-08 08:45;32,05
2017-09-08 09:00;33,9
2017-09-08 09:15;45
2017-09-08 09:30;53,2
2017-09-08 09:45;50,75
2017-09-08 10:00;55,55
2017-09-08 10:15;54,2
2017-09-08 10:30;47,35
2017-09-08 10:45;53,1
2017-09-08 11:00;54,35
2017-09-08 11:15;51,2
2017-09-08 11:30;57,7
2017-09-08 11:45;58,95
2017-09-08 12:00;63,55
2017-09-08 12:15;68,2
2017-09-08 12:30;66,9
2017-09-08 12:45;63,25
2017-09-08 13:00;62,5
2017-09-08 13:15;61,5
2017-09-08 13:30;60,55
2017-09-08 13:45;58
2017-09-08 14:00;58,8
2017-09-08 14:15;60,55
2017-09-08 14:30;62
2017-09-08 14:45;62,1
2017-09-08 15:00;69,65
2017-09-08 15:15;65,1
2017-09-08 15:30;65,95
2017-09-08 15:45;64,65
2017-09-08 16:00;66,85
2017-09-08 16:15;68,35
2017-09-08 16:30;64,15
2017-09-08 16:45;61,65
2017-09-08 17:00;53,6
2017-09-08 17:15;52,05
2017-09-08 17:30;47,2
2017-09-08 17:45;47,9
2017-09-08 18:00;48,9
2017-09-08 18:15;44,5
2017-09-08 18:30;43,85
2017-09-08 18:45;36,05
2017-09-08 19:00;34,7
2017-09-08 19:15;35,05
2017-09-08 19:30;34,25
2017-09-08 19:45;36,4
2017-09-08 20:00;31,6
2017-09-08 20:15;24
2017-09-08 20:30;22,7
2017-09-08 20:45;24
2017-09-08 21:00;35,15
2017-09-08 21:15;37,95
2017-09-08 21:30;40,75
2017-09-08 21:45;40,95
2017-09-08 22:00;35,4
2017-09-08 22:15;37,6
2017-09-08 22:30;37,45
2017-09-08 22:45;23,85
2017-09-08 23:00;25,9
2017-09-08 23:15;21,35
2017-09-08 23:30;22,35
2017-09-08 23:45;22,45
2017-09-09 00:00;24,45
2017-09-09 00:15;14,1
2017-09-09 00:30;13,15
2017-09-09 00:45;14,65
2017-09-09 01:00;14,9
2017-09-09 01:15;7,8
2017-09-09 01:30;1,7
2017-09-09 01:45;3,3
2017-09-09 02:00;1,7
2017-09-09 02:15;2,4
2017-09-09 02:30;2
2017-09-09 02:45;2,55
2017-09-09 03:00;2,3
2017-09-09 03:15;2,35
2017-09-09 03:30;2,2
2017-09-09 03:45;2,6
2017-09-09 04:00;4,1
2017-09-09 04:15;2,4
2017-09-09 04:30;3,4
2017-09-09 04:45;3,2
2017-09-09 05:00;3,1
2017-09-09 05:15;3,8
2017-09-09 05:30;3,3
2017-09-09 05:45;3,7
2017-09-09 06:00;3,75
2017-09-09 06:15;3,75
2017-09-09 06:30;2,8
2017-09-09 06:45;2,5
2017-09-09 07:00;2,65
2017-09-09 07:15;3,35
2017-09-09 07:30;3,75
2017-09-09 07:45;43,55
2017-09-09 08:00;35,1
2017-09-09 08:15;16,4
2017-09-09 08:30;15,2
2017-09-09 08:45;20
2017-09-09 09:00;19,9
2017-09-09 09:15;17,25
2017-09-09 09:30;17,95
2017-09-09 09:45;18,1
2017-09-09 10:00;17,8
2017-09-09 10:15;19,2
2017-09-09 10:30;19,55
2017-09-09 10:45;18,35
2017-09-09 11:00;18,4
2017-09-09 11:15;18,8
2017-09-09 11:30;21
2017-09-09 11:45;20,65
2017-09-09 12:00;21,65
2017-09-09 12:15;27,3
2017-09-09 12:30;30,05
2017-09-09 12:45;30,05
2017-09-09 13:00;28,3
2017-09-09 13:15;10,95
2017-09-09 13:30;10,05
2017-09-09 13:45;9,1
2017-09-09 14:00;9,9
2017-09-09 14:15;10,95
2017-09-09 14:30;6,15
2017-09-09 14:45;7,5
2017-09-09 15:00;6,2
2017-09-09 15:15;7,9
2017-09-09 15:30;7,1
2017-09-09 15:45;7,85
2017-09-09 16:00;8,85
2017-09-09 16:15;9,3
2017-09-09 16:30;10,1
2017-09-09 16:45;12,85
2017-09-09 17:00;14,05
2017-09-09 17:15;10,35
2017-09-09 17:30;10,1
2017-09-09 17:45;10,45
2017-09-09 18:00;10,4
2017-09-09 18:15;10,65
2017-09-09 18:30;10,95
2017-09-09 18:45;9,25
2017-09-09 19:00;10,1
2017-09-09 19:15;11,15
2017-09-09 19:30;11,1
2017-09-09 19:45;12,55
2017-09-09 20:00;12,5
2017-09-09 20:15;12,45
2017-09-09 20:30;13,7
2017-09-09 20:45;13,3
2017-09-09 21:00;13,4
2017-09-09 21:15;14,25
2017-09-09 21:30;15,8
2017-09-09 21:45;14,7
2017-09-09 22:00;11,55
2017-09-09 22:15;15
2017-09-09 22:30;13
2017-09-09 22:45;6,6
2017-09-09 23:00;2,1
2017-09-09 23:15;0
2017-09-09 23:30;0
2017-09-09 23:45;0,1
2017-09-10 00:00;0,4
2017-09-10 00:15;0,1
2017-09-10 00:30;0,2
2017-09-10 00:45;0,5
2017-09-10 01:00;1,2
2017-09-10 01:15;0,9
2017-09-10 01:30;0,95
2017-09-10 01:45;0,95
2017-09-10 02:00;0,5
2017-09-10 02:15;0,6
2017-09-10 02:30;1,1
2017-09-10 02:45;0,7
2017-09-10 03:00;1,3
2017-09-10 03:15;1
2017-09-10 03:30;1,1
2017-09-10 03:45;1,2
2017-09-10 04:00;1,4
2017-09-10 04:15;1,6
2017-09-10 04:30;1,35
2017-09-10 04:45;2,35
2017-09-10 05:00;2
2017-09-10 05:15;1,3
2017-09-10 05:30;1,6
2017-09-10 05:45;1,3
2017-09-10 06:00;1,6
2017-09-10 06:15;2,45
2017-09-10 06:30;1,7
2017-09-10 06:45;2,05
2017-09-10 07:00;3,6
2017-09-10 07:15;4,55
2017-09-10 07:30;2,65
2017-09-10 07:45;1,5
2017-09-10 08:00;2,5
2017-09-10 08:15;2,1
2017-09-10 08:30;3,05
2017-09-10 08:45;2,1
2017-09-10 09:00;3,75
2017-09-10 09:15;4,6
2017-09-10 09:30;5,55
2017-09-10 09:45;4,7
2017-09-10 10:00;3,65
2017-09-10 10:15;3,65
2017-09-10 10:30;2,5
2017-09-10 10:45;2,25
2017-09-10 11:00;1,75
2017-09-10 11:15;2,35
2017-09-10 11:30;3,9
2017-09-10 11:45;5,3
2017-09-10 12:00;5,55
2017-09-10 12:15;5,4
2017-09-10 12:30;6,05
2017-09-10 12:45;9,55
2017-09-10 13:00;9,25
2017-09-10 13:15;8,5
2017-09-10 13:30;14,35
2017-09-10 13:45;14,25
2017-09-10 14:00;15,75
2017-09-10 14:15;15,4
2017-09-10 14:30;19,05
2017-09-10 14:45;18,4
2017-09-10 15:00;16,4
2017-09-10 15:15;18,55
2017-09-10 15:30;19,5
2017-09-10 15:45;19,4
2017-09-10 16:00;19,1
2017-09-10 16:15;20,95
2017-09-10 16:30;21,1
2017-09-10 16:45;22,05
2017-09-10 17:00;21,15
2017-09-10 17:15;22,85
2017-09-10 17:30;22,25
2017-09-10 17:45;21,5
2017-09-10 18:00;21,45
2017-09-10 18:15;22,3
2017-09-10 18:30;23,45
2017-09-10 18:45;21,5
2017-09-10 19:00;22,85
2017-09-10 19:15;23,65
2017-09-10 19:30;23,9
2017-09-10 19:45;21,75
2017-09-10 20:00;18,75
2017-09-10 20:15;18,45
2017-09-10 20:30;18,15
2017-09-10 20:45;16,4
2017-09-10 21:00;17,65
2017-09-10 21:15;16,1
2017-09-10 21:30;17,45
2017-09-10 21:45;16,1
2017-09-10 22:00;15,35
2017-09-10 22:15;18,25
2017-09-10 22:30;19,7
2017-09-10 22:45;17,85
2017-09-10 23:00;14,6
2017-09-10 23:15;10
2017-09-10 23:30;14,05
2017-09-10 23:45;16,6

